Tracking 29487 objects as of 11-Sep-2024
HD Live streaming from Space Station
objects crossing your sky now

WESTAR 5

Track WESTAR 5 now!
WESTAR 5 is classified as:


NORAD ID: 13269
Int'l Code: 1982-058A
Perigee: 36,016.0 km
Apogee: 36,170.1 km
Inclination: 13.7 °
Period: 1,451.4 minutes
Semi major axis: 42464 km
RCS: 3.0486 m2 (large)
Launch date: June 9, 1982
Source: United States (US)
Launch site: AIR FORCE EASTERN TEST RANGE (AFETR)
Your satellite tracking list
Your tracking list is empty




NASA's NSSDC Master Catalog

Two Line Element Set (TLE):
1 13269U 82058A   24255.20906229 -.00000088  00000-0  00000-0 0  9999
2 13269  13.7356 341.7604 0018149 247.0347 113.9161  0.99213497113150
Source of the keplerian elements: AFSPC